Regional Weather Roundup
Issued by NWS Newport/Morehead, NC

Current Version | Previous Version | Text Only | Print | Product List | Glossary On
Versions: 1 2 3 4 5 6 7 8 9 10 11 12 13 14 15 16 17 18 19 20 21 22 23 24 25 26 27 28 29 30 31 32 33 34 35 36 37 38 39 40 41 42 43 44 45 46 47 48 49 50
000
ASUS42 KMHX 051213
RWRMHX
WEATHER ROUNDUP FOR EASTERN NORTH CAROLINA
NATIONAL WEATHER SERVICE NEWPORT/MOREHEAD CITY NC
800 AM EDT THU MAY 05 2016

NOTE: "FAIR" INDICATES FEW OR NO CLOUDS BELOW 12,000 FEET
WITH NO SIGNIFICANT WEATHER AND/OR OBSTRUCTIONS TO VISIBILITY

NCZ015>017-031-032-045>047-102-103-051300-
NORTH COAST

CITY           SKY/WX    TMP DP  RH WIND       PRES   REMARKS
EDENTON        CLOUDY    55  55 100 NE9       29.58F FOG
ELIZABETH CITY CLOUDY    52  52 100 NE17      29.59R FOG
KITTY HAWK     CLOUDY    52  52 100 NE9       29.56R FOG
MANTEO         CLOUDY    53  53 100 NE16      29.57R FOG

$$

NCZ045>047-081-094-103-104-051300-
CENTRAL COAST

CITY           SKY/WX    TMP DP  RH WIND       PRES   REMARKS
FRISCO         CLOUDY    57  55  93 NE13G20   29.52F
SWANQUARTER    NOT AVBL

$$

NCZ095-097-098-100-101-051300-
SOUTHERN COAST

CITY           SKY/WX    TMP DP  RH WIND       PRES   REMARKS
BEAUFORT       MOSUNNY   61  57  87 N10       29.52S
CEDAR ISLAND   NOT AVBL
JACKSONVILLE   CLOUDY    62  59  90 E8        29.53S
PINEY ISLAND   CLOUDY   N/A N/A N/A NE10      29.53
WILMINGTON     CLOUDY    63  61  93 NE5       29.53S FOG


$$

NCZ011>013-027>030-043-044-078>080-089-090>093-098-051300-
COASTAL PLAIN

CITY           SKY/WX    TMP DP  RH WIND       PRES   REMARKS
AHOSKIE        CLOUDY    54  52  93 NE6       29.59S
CLINTON        CLOUDY    62  62 100 E3        29.54S FOG
ELIZABETHTOWN  CLOUDY    59  56  88 CALM      29.54S
GOLDSBORO      CLOUDY    61  61 100 E10       29.53S
GREENVILLE     CLOUDY    55  55 100 NE6       29.61R
HAVELOCK       CLOUDY    61  56  83 N10       29.55S
KENANSVILLE    CLOUDY    61  60  96 CALM      29.55S FOG
KINSTON        CLOUDY    59  59 100 E6        29.56S
NEW BERN       CLOUDY    60  55  83 NE12      29.56R
RICHLANDS      CLOUDY    61  60  97 NE8       29.54S
ROCKY MOUNT    CLOUDY    56  54  93 NE9       29.57R
WASHINGTON     CLOUDY    57  55  91 NE8       29.56S
WHITEVILLE     NOT AVBL

$$

AMZ130-135-150-152-154-156-158-170-250-252-270-ANZ085-086-088-633-658-670-051300-
MARINE OBSERVATIONS

STATION/POSITION TIME  TEMP    WIND        PRES    WAVE   SWELL
                       AIR SEA DIR/SP/G            HT/PER HT/PER
                 (UTC) (F)     (DEG/KT/KT) (MB)    (FT/S) (FT/S)
CHESAPEAKE LIGHT 1100   49      40/ 22/ 26 1002.3
64 E VA BEACH    1150   51 52  360/ 17/ 21 1000.5    5/ 7
DUCK             1100   52 61   20/ 19/ 22 1000.5
2 E DUCK         1111      59                N/A     5/ 5
OREGON INLET     1100   54 62   10/ 11/ 15 1000.5
13E OREGON INLT  1200      57                N/A     4/ 6   2/ 9
HATTERAS CG      1100   58 69   30/ 13/ 21  999.7
DIAMOND BUOY     1150   60 71   10/ 17/ 21  998.9    4/ 7   2/ 9
CAPE LOOKOUT     1100   63      40/ 17/ 20  999.0
BEAUFORT LAB     1100   61 67   20/  9/ 12  998.7
30 SE NEW RVR IN 1125      73                N/A     4/ 6
27 SE WRIGHTSVLE 1108   69 72   60/ 12/ 16  998.9
5 SE WRIGHTSVLE  1108   67 69   70/  8/ 12 1000.2
225 S CAPE HAT   1150   67 73   10/ 12/ 14  998.2    5/ 7   5/ 7
41 SE CHARLESTON 1150   67 74  280/ 21/ 25 1000.7    4/ 5   2/ 8

$$




USA.gov is the U.S. government's official web portal to all federal, state and local government web resources and services.